Date_and_time,latitude,longitude,wind_speed,RelWindDirFrom,WindDirFrom,air_pressure,air_temperature,relative_humidity,Temp,platform_speed_wrt_ground,air_pressure_at_mean_sea_level,platform_orientation
2019-05-04 23:40,50.63043,-96.9807666666667,13.7,20.4,284,980.30,10.9,24,6.65,0.0,1006.90,270.0
2019-05-04 23:50,50.630435,-96.9807633333333,13.2,20.1,287,980.30,10.9,25,6.70,0.0,1006.89,270.0
2019-05-05 00:00,50.6304366666667,-96.9807783333333,10.6,17.5,282,980.44,10.5,26,6.72,0.0,1007.04,246.4
2019-05-05 00:10,50.6304366666667,-96.9807816666667,11.1,18.2,296,980.40,10.4,27,6.74,0.0,1007.01,246.4
2019-05-05 00:20,50.6304366666667,-96.9807816666667,10.9,17.6,286,980.51,10.4,27,6.71,0.0,1007.14,246.4
2019-05-05 00:30,50.6304366666667,-96.9807816666667,10.3,15.8,297,980.65,9.7,30,6.67,0.0,1007.30,246.4
2019-05-05 00:40,50.63044,-96.9807816666667,9.3,13.9,299,980.81,9.3,31,6.64,0.0,1007.48,246.4
2019-05-05 00:50,50.63042,-96.9807816666667,11.2,16.5,301,980.80,9.1,32,6.66,0.0,1007.48,246.4
2019-05-05 01:00,50.630425,-96.9807833333333,10.5,17.0,301,980.92,8.9,32,6.67,0.0,1007.63,240.8
2019-05-05 01:10,50.630425,-96.9807766666667,10.3,16.8,294,981.07,8.9,33,6.67,0.0,1007.77,240.8
2019-05-05 01:20,50.6304266666667,-96.980775,9.6,15.2,297,981.17,8.8,33,6.65,0.0,1007.85,240.8
2019-05-05 01:30,50.6304283333333,-96.9807733333333,10.4,17.3,299,981.21,8.4,33,6.63,0.0,1007.93,240.8
2019-05-05 01:40,50.6304383333333,-96.980775,9.6,13.6,301,981.32,8.0,35,6.60,0.0,1008.07,240.8
2019-05-05 01:50,50.63043,-96.9807733333333,8.6,12.9,313,981.40,7.5,37,6.60,0.0,1008.19,240.8
2019-05-05 02:00,50.6304316666667,-96.9807683333333,8.2,13.1,311,981.56,6.9,39,6.59,0.0,1008.39,360.0
2019-05-05 02:10,50.6304333333333,-96.9807666666667,7.8,10.9,307,981.72,6.5,39,6.58,0.0,1008.57,360.0
2019-05-05 02:20,50.630435,-96.98077,7.4,11.2,303,981.87,6.3,40,6.51,0.0,1008.77,360.0
2019-05-05 02:30,50.6304366666667,-96.9807716666667,7.5,11.7,303,981.97,6.0,40,6.46,0.0,1008.90,360.0
2019-05-05 02:40,50.6304266666667,-96.980765,7.0,11.3,298,982.08,5.8,41,6.46,0.0,1009.03,360.0
2019-05-05 02:50,50.6304316666667,-96.9807766666667,8.0,13.4,298,982.10,5.6,41,6.48,0.0,1009.07,360.0
2019-05-05 03:00,50.6304366666667,-96.9807633333333,6.2,11.7,299,982.24,5.4,42,6.50,0.0,1009.23,90.0
2019-05-05 03:10,50.6304366666667,-96.9807633333333,4.8,7.8,296,982.33,5.1,43,6.53,0.0,1009.34,90.0
2019-05-05 03:20,50.630455,-96.9807783333333,3.5,5.0,285,982.39,4.7,45,6.56,0.0,1009.44,90.0
2019-05-05 03:30,50.6304516666667,-96.9807783333333,2.5,4.5,273,982.41,4.4,46,6.57,0.0,1009.50,90.0
2019-05-05 03:40,50.6304466666667,-96.98078,2.8,4.0,270,982.44,4.1,47,6.58,0.0,1009.57,90.0
2019-05-05 03:50,50.6304433333333,-96.98078,3.0,4.9,260,982.45,3.8,48,6.59,0.0,1009.62,90.0
2019-05-05 04:00,50.6304433333333,-96.98078,3.2,4.0,238,982.49,3.4,49,6.59,0.0,1009.70,38.0
2019-05-05 04:10,50.6304416666667,-96.9807783333333,3.9,5.5,255,982.49,3.3,49,6.60,0.0,1009.72,38.0
2019-05-05 04:20,50.63043,-96.9807716666667,4.4,6.7,255,982.57,3.2,49,6.61,0.0,1009.81,38.0
2019-05-05 04:30,50.630475,-96.98079,4.4,6.0,264,982.56,3.2,51,6.60,0.0,1009.82,38.0
2019-05-05 04:40,50.6304433333333,-96.9807616666667,4.0,6.6,275,982.54,3.0,52,6.59,0.0,1009.82,38.0
2019-05-05 04:50,50.63044,-96.980765,3.8,6.0,264,982.62,2.7,53,6.58,0.0,1009.92,38.0
2019-05-05 05:00,50.63044,-96.9807666666667,3.8,5.9,254,982.66,2.5,54,6.57,0.0,1009.99,360.0
2019-05-05 05:10,50.63044,-96.98077,4.6,7.3,260,982.65,2.4,54,6.57,0.0,1010.01,360.0
2019-05-05 05:20,50.63044,-96.9807716666667,4.4,6.9,268,982.70,2.2,56,6.57,0.0,1010.07,360.0
2019-05-05 05:30,50.63044,-96.9808133333333,4.5,7.1,271,982.72,2.0,58,6.57,0.0,1010.13,360.0
2019-05-05 05:40,50.6304416666667,-96.980765,4.5,7.1,270,982.73,1.8,59,6.58,0.0,1010.16,360.0
2019-05-05 05:50,50.6304633333333,-96.9807933333333,4.0,5.7,274,982.72,1.7,60,6.57,0.0,1010.18,360.0
2019-05-05 06:00,50.6304333333333,-96.9807733333333,3.9,5.7,272,982.75,1.5,61,6.57,0.0,1010.22,228.3
2019-05-05 06:10,50.63043,-96.9807716666667,3.6,5.3,267,982.76,1.3,62,6.56,0.0,1010.24,228.3
2019-05-05 06:20,50.6304283333333,-96.9807733333333,3.5,4.6,246,982.86,1.2,63,6.56,0.0,1010.36,228.3
2019-05-05 06:30,50.6304266666667,-96.9807733333333,3.8,5.8,253,982.98,0.9,63,6.56,0.0,1010.50,228.3
2019-05-05 06:40,50.6304283333333,-96.9807733333333,3.9,6.5,264,983.04,1.0,65,6.56,0.0,1010.57,228.3
2019-05-05 06:50,50.6304283333333,-96.9807733333333,4.4,7.7,267,983.14,0.9,66,6.55,0.0,1010.70,228.3
2019-05-05 07:00,50.6304283333333,-96.9807716666667,5.4,10.0,279,983.26,0.8,68,6.53,0.0,1010.83,147.5
2019-05-05 07:10,50.63043,-96.9807716666667,6.0,9.0,289,983.32,0.9,69,6.52,0.0,1010.89,147.5
2019-05-05 07:20,50.6304566666667,-96.9807433333333,7.0,11.7,290,983.38,1.0,70,6.51,0.0,1010.96,147.5
2019-05-05 07:30,50.6304433333333,-96.9807516666667,5.7,8.9,292,983.57,0.9,71,6.50,0.0,1011.17,147.5
2019-05-05 07:40,50.6304433333333,-96.9807566666667,6.6,9.3,298,983.69,0.7,72,6.49,0.0,1011.31,147.5
2019-05-05 07:50,50.6304433333333,-96.98076,6.1,8.9,292,983.83,0.4,73,6.48,0.0,1011.48,147.5
2019-05-05 08:00,50.6304433333333,-96.98076,6.2,10.1,293,983.87,0.1,76,6.47,0.0,1011.54,90.0
2019-05-05 08:10,50.6304333333333,-96.9806866666667,6.9,10.8,293,983.95,-0.1,78,6.47,0.0,1011.65,90.0
2019-05-05 08:20,50.6304316666667,-96.9807483333333,7.2,10.7,298,984.02,-0.2,79,6.45,0.0,1011.73,90.0
2019-05-05 08:30,50.6304366666667,-96.980755,5.6,8.9,288,984.21,-0.4,81,6.44,0.0,1011.94,90.0
2019-05-05 08:40,50.6304416666667,-96.9807516666667,5.1,8.6,279,984.34,-0.6,82,6.41,0.0,1012.08,90.0
2019-05-05 08:50,50.6304433333333,-96.9807666666667,4.2,6.1,274,984.49,-0.9,84,6.40,0.0,1012.26,90.0
2019-05-05 09:00,50.630445,-96.980765,5.6,8.6,283,984.53,-1.1,84,6.38,0.0,1012.31,41.3
2019-05-05 09:10,50.6304433333333,-96.980765,6.7,12.2,287,984.59,-1.1,85,6.37,0.0,1012.37,41.3
2019-05-05 09:20,50.630445,-96.9807616666667,7.2,10.5,296,984.69,-1.1,85,6.35,0.0,1012.47,41.3
2019-05-05 09:30,50.6304166666667,-96.9807716666667,8.2,13.0,295,984.74,-1.1,86,6.34,0.0,1012.53,41.3
2019-05-05 09:40,50.63044,-96.9807666666667,9.3,17.3,301,984.74,-1.1,87,6.33,0.0,1012.55,41.3
2019-05-05 09:50,50.630445,-96.9807666666667,7.2,12.0,289,984.84,-1.1,88,6.32,0.0,1012.67,41.3
2019-05-05 10:00,50.6304216666667,-96.9807633333333,7.1,10.1,286,984.89,-1.3,89,6.30,0.0,1012.73,131.7
2019-05-05 10:10,50.6304316666667,-96.9807633333333,6.1,10.4,286,985.01,-1.4,91,6.27,0.0,1012.87,131.7
2019-05-05 10:20,50.6304366666667,-96.9807616666667,5.1,7.5,272,985.17,-1.5,93,6.24,0.0,1013.05,131.7
2019-05-05 10:30,50.6304383333333,-96.980765,6.4,9.3,271,985.20,-1.7,94,6.23,0.0,1013.11,131.7
2019-05-05 10:40,50.6304366666667,-96.9807616666667,5.8,9.6,272,985.24,-1.7,95,6.22,0.0,1013.17,131.7
2019-05-05 10:50,50.6304366666667,-96.9807616666667,6.6,9.6,279,985.29,-1.8,95,6.19,0.0,1013.23,131.7
2019-05-05 11:00,50.6304383333333,-96.9807633333333,6.7,10.3,280,985.34,-1.8,95,6.18,0.0,1013.28,270.0
2019-05-05 11:10,50.6304383333333,-96.9807616666667,6.9,9.9,276,985.43,-1.8,95,6.17,0.0,1013.37,270.0
2019-05-05 11:20,50.630455,-96.980765,7.9,11.7,282,985.47,-1.8,94,6.16,0.0,1013.41,270.0
2019-05-05 11:30,50.6304483333333,-96.9807583333333,7.7,13.3,283,985.54,-1.7,94,6.14,0.0,1013.48,270.0
2019-05-05 11:40,50.6304383333333,-96.9807616666667,8.0,11.5,282,985.69,-1.7,93,6.12,0.0,1013.64,270.0
2019-05-05 11:50,50.6304383333333,-96.98077,7.2,11.1,287,985.77,-1.6,93,6.10,0.0,1013.72,270.0
2019-05-05 12:00,50.630435,-96.9807683333333,8.2,13.6,287,985.88,-1.5,92,6.09,0.0,1013.84,142.0
2019-05-05 12:10,50.6304383333333,-96.9807716666667,8.0,12.8,292,986.02,-1.3,92,6.07,0.0,1013.98,142.0
2019-05-05 12:20,50.6304433333333,-96.9807866666667,8.9,13.6,294,986.09,-1.0,91,6.05,0.0,1014.04,142.0
2019-05-05 12:30,50.6304483333333,-96.9807866666667,8.4,13.9,293,986.19,-0.8,90,6.03,0.0,1014.14,142.0
2019-05-05 12:40,50.6304483333333,-96.9807833333333,7.9,12.6,293,986.29,-0.6,90,6.02,0.0,1014.23,142.0
2019-05-05 12:50,50.6304483333333,-96.9807816666667,8.3,13.1,293,986.39,-0.5,90,6.01,0.0,1014.34,142.0
2019-05-05 13:00,50.6304466666667,-96.9807783333333,8.7,14.3,289,986.50,-0.4,90,5.99,0.0,1014.44,332.8
2019-05-05 13:10,50.630445,-96.9807783333333,9.1,14.8,296,986.60,-0.1,89,5.97,0.0,1014.53,332.8
2019-05-05 13:20,50.630445,-96.9807783333333,8.8,13.7,293,986.70,0.2,88,5.97,0.0,1014.61,332.8
2019-05-05 13:30,50.6304433333333,-96.9807766666667,8.8,13.8,301,986.76,0.6,86,5.96,0.0,1014.65,332.8
2019-05-05 13:40,50.6304433333333,-96.9807766666667,10.5,15.3,311,986.75,1.0,82,5.96,0.0,1014.62,332.8
2019-05-05 13:50,50.6304333333333,-96.9807716666667,9.5,15.7,304,986.85,1.2,80,5.96,0.0,1014.70,332.8
2019-05-05 14:00,50.6304333333333,-96.9807616666667,9.1,15.2,313,986.96,1.3,79,5.95,0.0,1014.81,165.5
2019-05-05 14:10,50.6304333333333,-96.9807633333333,10.2,18.4,306,987.03,1.3,77,5.93,0.0,1014.86,165.5
2019-05-05 14:20,50.630435,-96.980765,9.8,18.1,314,987.12,1.3,77,5.93,0.0,1014.93,165.5
2019-05-05 14:30,50.630425,-96.980785,10.6,16.2,320,987.13,1.2,77,5.93,0.0,1014.94,165.5
2019-05-05 14:40,50.6304183333333,-96.98077,11.4,17.2,315,987.20,1.3,74,5.92,0.0,1015.01,165.5
2019-05-05 14:50,50.6304233333333,-96.9807483333333,11.2,16.7,321,987.34,1.2,74,5.92,0.0,1015.15,165.5
2019-05-05 15:00,50.6304283333333,-96.9807616666667,10.1,15.7,320,987.49,1.2,73,5.91,0.0,1015.28,165.5
2019-05-05 15:10,50.63043,-96.9807633333333,11.3,16.3,315,987.51,1.3,70,5.90,0.0,1015.28,165.5
2019-05-05 15:20,50.63043,-96.9807666666667,10.6,16.5,321,987.65,1.4,70,5.92,0.0,1015.40,165.5
2019-05-05 15:30,50.6304283333333,-96.980765,10.6,15.0,309,987.77,1.4,69,5.93,0.0,1015.51,165.5
2019-05-05 15:40,50.63043,-96.98077,10.7,16.6,315,987.86,1.3,68,5.94,0.0,1015.60,165.5
2019-05-05 15:50,50.6304483333333,-96.980765,9.3,14.9,318,988.06,1.4,68,5.94,0.0,1015.79,165.5
2019-05-05 16:00,50.63044,-96.980775,10.4,16.1,322,988.18,1.3,69,5.94,0.0,1015.92,119.2
2019-05-05 16:10,50.6304383333333,-96.980775,9.4,14.6,329,988.36,1.4,70,5.95,0.0,1016.10,119.2
2019-05-05 16:20,50.6304383333333,-96.98078,10.3,14.5,335,988.44,1.3,70,5.94,0.0,1016.19,119.2
2019-05-05 16:30,50.63044,-96.980775,9.5,14.3,331,988.53,1.4,68,5.94,0.0,1016.27,119.2
2019-05-05 16:40,50.630435,-96.9807866666667,7.8,11.8,325,988.63,1.7,68,5.93,0.0,1016.37,119.2
2019-05-05 16:50,50.6304416666667,-96.9807733333333,9.1,13.0,315,988.69,1.5,68,5.91,0.0,1016.43,119.2
2019-05-05 17:00,50.6304366666667,-96.9807716666667,9.1,13.4,320,988.72,1.7,67,5.90,0.0,1016.45,299.2
2019-05-05 17:10,50.630435,-96.9807683333333,8.3,13.2,329,988.73,1.9,66,5.90,0.0,1016.45,299.2
2019-05-05 17:20,50.630435,-96.98077,10.7,17.1,335,988.74,1.9,69,5.90,0.0,1016.46,299.2
2019-05-05 17:30,50.630435,-96.9807733333333,9.7,14.6,338,988.86,1.9,66,5.88,0.0,1016.59,299.2
2019-05-05 17:40,50.6304366666667,-96.98077,14.7,18.1,5,988.77,1.7,79,5.86,0.0,1016.50,299.2
2019-05-05 17:50,50.6304366666667,-96.9807766666667,12.5,15.8,358,988.88,1.7,76,5.82,0.0,1016.61,299.2
2019-05-05 18:00,50.630435,-96.9807766666667,12.1,16.6,5,988.92,1.8,74,5.80,0.0,1016.65,323.4
2019-05-05 18:10,50.6304383333333,-96.98078,14.0,16.8,19,988.91,1.5,80,5.77,0.0,1016.66,323.4
2019-05-05 18:20,50.6304383333333,-96.9807783333333,14.5,18.4,30,988.90,1.1,85,5.77,0.0,1016.66,323.4
2019-05-05 18:30,50.63044,-96.9807766666667,15.8,18.1,28,988.87,0.9,85,5.76,0.0,1016.63,323.4
2019-05-05 18:40,50.6304416666667,-96.980775,14.0,16.9,28,988.95,1.1,82,5.74,0.0,1016.71,323.4
2019-05-05 18:50,50.6304416666667,-96.980775,14.4,16.4,26,988.91,1.1,83,5.74,0.0,1016.66,323.4
2019-05-05 19:00,50.6304433333333,-96.980775,15.5,18.8,24,988.96,1.0,83,5.77,0.0,1016.71,90.0
2019-05-05 19:10,50.630445,-96.98077,15.3,18.8,25,989.12,1.1,85,5.78,0.0,1016.87,90.0
2019-05-05 19:20,50.6304383333333,-96.980765,15.3,19.0,25,989.13,1.1,85,5.78,0.0,1016.88,90.0
2019-05-05 19:30,50.63044,-96.980765,14.7,16.9,24,989.23,1.2,84,5.77,0.0,1016.99,90.0
2019-05-05 19:40,50.6304383333333,-96.9807616666667,15.3,18.3,20,989.21,1.2,83,5.77,0.0,1016.96,90.0
2019-05-05 19:50,50.63044,-96.9807616666667,14.3,17.4,20,989.32,1.2,82,5.77,0.0,1017.07,90.0
2019-05-05 20:00,50.6304316666667,-96.98075,15.2,17.2,21,989.31,1.3,81,5.74,0.0,1017.08,111.5
2019-05-05 20:10,50.6304416666667,-96.9807616666667,15.2,17.9,22,989.29,1.4,79,5.71,0.0,1017.07,111.5
2019-05-05 20:20,50.6304433333333,-96.980765,15.0,17.5,24,989.29,1.5,77,5.67,0.0,1017.07,111.5
2019-05-05 20:30,50.6304433333333,-96.9807616666667,15.4,18.1,20,989.32,1.5,78,5.63,0.0,1017.09,111.5
2019-05-05 20:40,50.6304433333333,-96.9807633333333,15.3,18.0,24,989.38,1.5,77,5.60,0.0,1017.16,111.5
2019-05-05 20:50,50.6304433333333,-96.980765,14.4,16.9,26,989.46,1.5,77,5.56,0.0,1017.24,111.5
2019-05-05 21:00,50.6304433333333,-96.9807666666667,15.8,19.1,22,989.44,1.5,75,5.55,0.0,1017.21,48.3
2019-05-05 21:10,50.6304433333333,-96.9807666666667,15.6,18.6,25,989.47,1.5,76,5.55,0.0,1017.25,48.3
2019-05-05 21:20,50.63042,-96.9807783333333,14.9,18.4,27,989.56,1.5,78,5.55,0.0,1017.33,48.3
2019-05-05 21:30,50.63043,-96.9807666666667,15.0,17.9,25,989.61,1.5,78,5.56,0.0,1017.39,48.3
2019-05-05 21:40,50.6304566666667,-96.9807616666667,16.3,18.6,26,989.64,1.5,79,5.58,0.0,1017.42,48.3
2019-05-05 21:50,50.6304383333333,-96.98077,15.4,18.3,26,989.79,1.4,80,5.58,0.0,1017.57,48.3
2019-05-05 22:00,50.6304433333333,-96.980765,15.7,18.1,24,989.79,1.4,80,5.57,0.0,1017.56,90.0
2019-05-05 22:10,50.630445,-96.98077,16.7,20.3,21,989.75,1.5,80,5.55,0.0,1017.52,90.0
2019-05-05 22:20,50.6304466666667,-96.98077,16.4,19.4,20,989.87,1.5,82,5.55,0.0,1017.63,90.0
2019-05-05 22:30,50.6304466666667,-96.98077,16.2,19.0,18,990.00,1.5,80,5.53,0.0,1017.77,90.0
2019-05-05 22:40,50.6304466666667,-96.98077,16.5,18.7,20,990.09,1.5,79,5.52,0.0,1017.87,90.0
2019-05-05 22:50,50.630445,-96.98077,15.0,17.9,22,990.28,1.4,80,5.53,0.0,1018.06,90.0
2019-05-05 23:00,50.630435,-96.9807783333333,15.0,17.3,23,990.39,1.4,80,5.54,0.0,1018.18,283.7
2019-05-05 23:10,50.6304416666667,-96.9807666666667,14.3,16.6,24,990.58,1.4,80,5.57,0.0,1018.37,283.7
2019-05-05 23:20,50.6304366666667,-96.980765,14.0,16.5,25,990.76,1.5,80,5.59,0.0,1018.55,283.7
2019-05-05 23:30,50.6304366666667,-96.980765,12.1,14.3,24,991.00,1.5,81,5.60,0.0,1018.80,283.7
2019-05-05 23:40,50.6304366666667,-96.98077,11.9,13.9,20,991.10,1.5,80,5.61,0.0,1018.90,283.7
2019-05-05 23:50,50.6304433333333,-96.9807733333333,12.4,14.7,17,991.18,1.5,78,5.62,0.0,1018.98,283.7
